Location: Fernhill
(41.0167°S, 175.6333°E)
Time: 03:11:26
(UTC+00:00)

Cosmos 489 Rocket - Pass Details

Date: 08 November 2025
Orbit: 952 x 981 km, 74.0° (Epoch: 15 December)

Event Time Altitude Azimuth Distance (km) Brightness Sun altitude
Exits shadow 10:34:33 80° 88° (E) 982 4.3 -28.9°
Drops below altitude 10° 10:40:44 10° 158° (SSE) 2,717 7.4 -29.3°
Sets 10:43:17 0° 159° (SSE) 3,672 8.2 -29.5°
